loading
DOY 173 | 2024-06-21T04:02:56Z

THOR ABLESTAR DEB, 138

Orbit data source: Space-Track

THOR ABLESTAR DEB, 138 is space debris in LEO originally from a launch on Thu, 29 Jun 1961 UTC launched from the Air Force Eastern Test Range (AFETR). Debris objects in space refer to the collection of defunct objects orbiting the Earth. Examples of debris include non-operational satellites, rocket bodies, and fragments generated from explosions, collisions, or faulty payload assembly.

Loading next visibility...
Loading greatness...
THOR ABLESTAR DEB details
NORAD ID138
COSPAR ID
1961-015Y
Orbit
LEO
Last TLE update1 day ago
Origin
Flag of USUSAF SSD (US)
ManufacturerUnknown
BusUnknown
MotorUnknown
MassWet unknown, Dry mass unknown
Launch date (UTC)
1961-06-29 (63 years ago)
Launch vehicleUnknown
Launch site
Air Force Eastern Test Range (AFETR)
Object type
Payload
Rocket body
Debris
Radar Cross SectionSmall (<0.1 m²)
Predictive object data (real-time)
Latitude-24.45812°
Longitude-152.32625°
Altitude865.427 km
Speed7.432 km/s
Apparent Right ascension04h 14m 32s
Apparent Declination-32° 30' 00"
Sunlit
Object is in daylight
Predictive observer data (real-time)
Local Sidereal Time15:01:52
Azimuth291.218° WNW
Elevation-73.615°
Doppler factor1
Orbital elements
Apogee907.228 km
Perigee854.625 km
Semi-major axis7,259.063 km
Eccentricity0.0036233
Inclination67.155°
RAAN91.1486°
Arg. of periapsis320.0373°
True anomaly40.07153°
Mean anomaly39.8048°
Mean motion3.50931 °/min
BSTAR0.00039643
Period102.58 mins
Definitive object data (Epoch: 2024-06-19T21:23:01.933Z)
Latitude-0.0001°
Longitude-138.20038°
Altitude864.525 km
Speed7.431 km/s
True Right ascension06h 04m 35s
True Declination0° 00' 00"
Sunlit
Object was in daylight at TLE epoch
TLE from 1 day ago
0 THOR ABLESTAR DEB
1 00138U 61015Y   24171.89099460  .00000546  00000-0  39643-3 0  9998
2 00138  67.1550  91.1486 0036233 320.0373  39.8048 14.03244085200726
Epoch: 2024-06-19T21:23Z
No data available

THOR ABLESTAR DEB Visibility forecast

Observer location: 39.9160978°, -105.1181434, 0m alt.

THOR ABLESTAR DEB is not visible in the next 10 days
Span
Click to sort rows by Start time (UTC) header in descending order
Start Az.
Max El. time (UTC)
Max El. Az.
Max El.
End time (UTC)
End Az.